�������l�o���
Date,Time,MP-1(��Sv/h),MP-2(��Sv/h),MP-3(��Sv/h),MP-4(��Sv/h),MP-5(��Sv/h),MP-6(��Sv/h),MP-7(��Sv/h),����,����(m/s),���J
2019/02/27,00:00,0.218,0.195,0.317,0.298,0.278,0.159,0.096,�k�k��,4.8,��
2019/02/27,00:10,0.217,0.195,0.318,0.298,0.276,0.159,0.096,�k�k��,5.2,��
2019/02/27,00:20,0.217,0.196,0.319,0.296,0.277,0.159,0.096,�k��,5.7,��
2019/02/27,00:30,0.217,0.195,0.319,0.295,0.279,0.159,0.096,�k��,6.3,��
2019/02/27,00:40,0.216,0.196,0.318,0.296,0.279,0.159,0.096,�k��,6.0,��
2019/02/27,00:50,0.217,0.195,0.318,0.298,0.278,0.158,0.096,�k��,4.7,��
2019/02/27,01:00,0.215,0.195,0.319,0.297,0.278,0.159,0.096,�k��,4.7,��
2019/02/27,01:10,0.216,0.195,0.318,0.297,0.278,0.160,0.096,�k��,5.2,��
2019/02/27,01:20,0.217,0.197,0.319,0.297,0.278,0.160,0.096,�k��,5.5,��
2019/02/27,01:30,0.216,0.195,0.318,0.298,0.277,0.159,0.096,���k��,5.7,��
2019/02/27,01:40,0.217,0.195,0.319,0.296,0.278,0.159,0.095,�k��,6.9,��
2019/02/27,01:50,0.217,0.195,0.317,0.297,0.277,0.159,0.097,���k��,6.0,��
2019/02/27,02:00,0.216,0.196,0.318,0.298,0.278,0.159,0.096,�k��,6.2,��
2019/02/27,02:10,0.216,0.196,0.318,0.298,0.278,0.160,0.096,���k��,5.9,��
2019/02/27,02:20,0.217,0.197,0.318,0.297,0.278,0.160,0.095,���k��,6.0,��
2019/02/27,02:30,0.216,0.197,0.319,0.296,0.278,0.159,0.097,���k��,5.1,��
2019/02/27,02:40,0.217,0.195,0.319,0.297,0.277,0.160,0.096,���k��,3.8,��
2019/02/27,02:50,0.218,0.197,0.319,0.296,0.276,0.159,0.097,���k��,2.8,��
2019/02/27,03:00,0.217,0.196,0.319,0.297,0.278,0.160,0.096,�k��,2.9,��
2019/02/27,03:10,0.216,0.195,0.318,0.297,0.278,0.160,0.096,�k��,3.5,��
2019/02/27,03:20,0.215,0.196,0.318,0.297,0.279,0.159,0.095,�k�k��,3.5,��
2019/02/27,03:30,0.216,0.195,0.317,0.298,0.277,0.160,0.096,�k�k��,4.0,��
2019/02/27,03:40,0.216,0.196,0.318,0.296,0.278,0.159,0.096,�k��,5.8,��
2019/02/27,03:50,0.217,0.197,0.317,0.296,0.278,0.160,0.096,�k��,4.6,��
2019/02/27,04:00,0.216,0.197,0.319,0.297,0.277,0.160,0.096,�k��,3.8,��
2019/02/27,04:10,0.217,0.196,0.318,0.297,0.278,0.160,0.096,���k��,4.3,��
2019/02/27,04:20,0.217,0.196,0.318,0.296,0.278,0.159,0.096,�k��,4.5,��
2019/02/27,04:30,0.216,0.196,0.318,0.297,0.279,0.159,0.097,�k��,4.0,��
2019/02/27,04:40,0.217,0.195,0.316,0.297,0.277,0.160,0.096,�k��,3.7,��
2019/02/27,04:50,0.216,0.196,0.318,0.296,0.277,0.159,0.096,�k��,3.4,��
2019/02/27,05:00,0.218,0.196,0.319,0.297,0.278,0.159,0.096,�k��,3.7,��
2019/02/27,05:10,0.216,0.196,0.318,0.296,0.279,0.160,0.096,�k��,3.1,��
2019/02/27,05:20,0.216,0.195,0.319,0.298,0.279,0.160,0.096,�k��,3.7,��
2019/02/27,05:30,0.217,0.196,0.318,0.297,0.278,0.159,0.096,�k��,2.9,��
2019/02/27,05:40,0.216,0.197,0.319,0.296,0.277,0.159,0.096,�k��,2.9,��
2019/02/27,05:50,0.217,0.196,0.318,0.297,0.278,0.159,0.096,�k��,3.2,��
2019/02/27,06:00,0.217,0.196,0.317,0.296,0.279,0.160,0.097,�k��,2.6,��
2019/02/27,06:10,0.217,0.196,0.317,0.296,0.278,0.160,0.096,�k��,2.4,��
2019/02/27,06:20,0.218,0.195,0.319,0.297,0.278,0.159,0.096,�k��,2.2,��
2019/02/27,06:30,0.217,0.196,0.319,0.297,0.277,0.159,0.096,���k��,1.7,��
2019/02/27,06:40,0.218,0.196,0.319,0.298,0.277,0.160,0.096,��,1.4,��
2019/02/27,06:50,0.217,0.196,0.318,0.298,0.279,0.160,0.096,��,2.2,��
2019/02/27,07:00,0.217,0.196,0.318,0.297,0.278,0.159,0.096,��,2.0,��
2019/02/27,07:10,0.216,0.196,0.317,0.297,0.277,0.160,0.096,��,2.1,��
2019/02/27,07:20,0.217,0.196,0.319,0.296,0.278,0.159,0.096,���k��,2.3,��
2019/02/27,07:30,0.217,0.195,0.318,0.296,0.278,0.160,0.096,���k��,3.0,��
2019/02/27,07:40,0.218,0.196,0.318,0.296,0.277,0.160,0.097,���k��,2.9,��
2019/02/27,07:50,0.216,0.196,0.317,0.295,0.278,0.160,0.095,���k��,2.7,��
2019/02/27,08:00,0.217,0.197,0.317,0.297,0.277,0.161,0.096,���k��,2.3,��
2019/02/27,08:10,0.217,0.196,0.319,0.295,0.278,0.160,0.096,���k��,2.5,��
2019/02/27,08:20,0.216,0.196,0.317,0.296,0.277,0.160,0.094,�k�k��,1.5,��
2019/02/27,08:30,0.216,0.195,0.318,0.295,0.278,0.159,0.096,�k�k��,1.8,��
2019/02/27,08:40,0.216,0.196,0.319,0.296,0.277,0.158,0.095,�k,1.3,��
2019/02/27,08:50,0.216,0.195,0.318,0.296,0.278,0.159,0.096,�k�k��,1.7,��
2019/02/27,09:00,0.217,0.195,0.318,0.297,0.278,0.159,0.095,�k��,1.4,��
2019/02/27,09:10,0.216,0.195,0.318,0.296,0.277,0.159,0.096,�k��,1.4,��
2019/02/27,09:20,0.217,0.195,0.318,0.297,0.279,0.159,0.096,���k��,1.9,��
2019/02/27,09:30,0.217,0.194,0.318,0.295,0.279,0.159,0.095,�k��,2.2,��
2019/02/27,09:40,0.217,0.194,0.317,0.296,0.278,0.158,0.096,���k��,2.7,��
2019/02/27,09:50,0.215,0.195,0.317,0.296,0.279,0.159,0.095,���k��,2.8,��
2019/02/27,10:00,0.216,0.195,0.317,0.295,0.279,0.159,0.095,�k�k��,2.0,��
2019/02/27,10:10,0.216,0.195,0.318,0.297,0.278,0.158,0.096,�k��,2.1,��
2019/02/27,10:20,0.215,0.195,0.318,0.295,0.278,0.159,0.096,�k��,3.0,��
2019/02/27,10:30,0.215,0.194,0.317,0.296,0.278,0.159,0.096,�k�k��,2.3,��
2019/02/27,10:40,0.216,0.198,0.318,0.297,0.279,0.159,0.095,�k��,2.5,��
2019/02/27,10:50,0.216,0.195,0.318,0.296,0.279,0.159,0.096,���k��,3.3,��
2019/02/27,11:00,0.216,0.194,0.317,0.296,0.277,0.159,0.096,��,3.8,��
2019/02/27,11:10,0.215,0.195,0.318,0.295,0.279,0.158,0.096,��,3.5,��
2019/02/27,11:20,0.216,0.195,0.317,0.296,0.278,0.158,0.095,��,3.3,��
2019/02/27,11:30,0.216,0.196,0.317,0.297,0.279,0.159,0.096,��,2.1,��
2019/02/27,11:40,0.215,0.196,0.318,0.297,0.279,0.159,0.095,��,2.8,��
2019/02/27,11:50,0.216,0.195,0.317,0.297,0.277,0.160,0.095,��,2.7,��
2019/02/27,12:00,0.216,0.196,0.318,0.297,0.279,0.160,0.095,��,3.7,��
2019/02/27,12:10,0.216,0.195,0.319,0.296,0.279,0.160,0.096,���쓌,3.4,��
2019/02/27,12:20,0.216,0.195,0.317,0.297,0.279,0.159,0.095,��,3.4,��
2019/02/27,12:30,0.216,0.196,0.318,0.296,0.279,0.159,0.096,��,3.2,��
2019/02/27,12:40,0.216,0.196,0.317,0.297,0.278,0.160,0.095,��,2.4,��
2019/02/27,12:50,0.215,0.196,0.317,0.297,0.281,0.159,0.096,��,2.6,��
2019/02/27,13:00,0.215,0.196,0.319,0.296,0.279,0.159,0.096,���쓌,1.5,��
2019/02/27,13:10,0.217,0.194,0.317,0.297,0.278,0.159,0.096,��,2.6,��
2019/02/27,13:20,0.216,0.195,0.317,0.298,0.279,0.159,0.096,���쓌,1.8,��
2019/02/27,13:30,0.216,0.196,0.315,0.295,0.279,0.159,0.096,���쓌,2.6,��
2019/02/27,13:40,0.215,0.196,0.316,0.298,0.278,0.159,0.096,���쓌,2.1,��
2019/02/27,13:50,0.216,0.194,0.318,0.295,0.279,0.159,0.095,���쓌,3.0,��
2019/02/27,14:00,0.216,0.195,0.316,0.297,0.279,0.158,0.096,�쓌,3.0,��
2019/02/27,14:10,0.215,0.195,0.318,0.297,0.277,0.161,0.095,���쓌,3.8,��
2019/02/27,14:20,0.216,0.195,0.317,0.297,0.279,0.158,0.095,���쓌,3.9,��
2019/02/27,14:30,0.216,0.195,0.317,0.298,0.278,0.159,0.095,�쓌,4.5,��
2019/02/27,14:40,0.216,0.196,0.318,0.297,0.280,0.161,0.095,�쓌,4.0,��
2019/02/27,14:50,0.217,0.196,0.317,0.297,0.279,0.160,0.095,�쓌,3.9,��
2019/02/27,15:00,0.216,0.195,0.318,0.299,0.279,0.159,0.096,��쓌,4.2,��
2019/02/27,15:10,0.218,0.195,0.319,0.297,0.279,0.159,0.095,��쓌,4.8,��
2019/02/27,15:20,0.216,0.195,0.317,0.297,0.278,0.159,0.096,��쓌,4.8,��
2019/02/27,15:30,0.217,0.196,0.319,0.297,0.281,0.159,0.095,��쓌,5.6,��
2019/02/27,15:40,0.218,0.196,0.318,0.297,0.278,0.158,0.096,��쓌,4.3,��
2019/02/27,15:50,0.216,0.195,0.317,0.296,0.278,0.159,0.096,��쓌,5.5,��
2019/02/27,16:00,0.217,0.196,0.319,0.298,0.280,0.160,0.095,��쓌,4.8,��
2019/02/27,16:10,0.217,0.197,0.318,0.297,0.280,0.160,0.095,��쓌,5.3,��
2019/02/27,16:20,0.215,0.196,0.317,0.298,0.279,0.161,0.095,��쓌,5.1,��
2019/02/27,16:30,0.217,0.195,0.318,0.298,0.279,0.159,0.096,��,5.6,��
2019/02/27,16:40,0.217,0.196,0.317,0.297,0.279,0.159,0.096,��,5.5,��
2019/02/27,16:50,0.217,0.195,0.317,0.297,0.279,0.160,0.096,��,5.9,��
2019/02/27,17:00,0.216,0.196,0.319,0.297,0.280,0.160,0.096,��,6.7,��
2019/02/27,17:10,0.217,0.197,0.317,0.297,0.279,0.160,0.096,��,6.2,��
2019/02/27,17:20,0.216,0.195,0.318,0.296,0.279,0.160,0.095,��,6.2,��
2019/02/27,17:30,0.217,0.194,0.319,0.298,0.280,0.160,0.095,��,5.6,��
2019/02/27,17:40,0.217,0.196,0.318,0.298,0.279,0.159,0.096,��,4.2,��
2019/02/27,17:50,0.217,0.197,0.317,0.296,0.280,0.159,0.096,��쐼,4.3,��
2019/02/27,18:00,0.218,0.196,0.318,0.297,0.279,0.159,0.095,��쐼,3.1,��
2019/02/27,18:10,0.217,0.196,0.318,0.297,0.279,0.160,0.096,��쐼,3.4,��
2019/02/27,18:20,0.217,0.197,0.318,0.296,0.279,0.160,0.095,��쐼,3.8,��
2019/02/27,18:30,0.217,0.196,0.316,0.296,0.279,0.160,0.095,��쐼,4.9,��
2019/02/27,18:40,0.217,0.196,0.319,0.297,0.279,0.160,0.096,��쐼,4.4,��
2019/02/27,18:50,0.216,0.196,0.318,0.298,0.279,0.160,0.095,��쐼,4.1,��
2019/02/27,19:00,0.216,0.196,0.318,0.296,0.278,0.159,0.095,��,3.6,��
2019/02/27,19:10,0.217,0.195,0.318,0.297,0.278,0.160,0.096,��쐼,2.5,��
2019/02/27,19:20,0.217,0.196,0.320,0.298,0.278,0.161,0.096,��쐼,3.1,��
2019/02/27,19:30,0.216,0.195,0.317,0.298,0.278,0.159,0.095,��쐼,4.0,��
2019/02/27,19:40,0.217,0.195,0.318,0.296,0.279,0.160,0.096,��쐼,4.4,��
2019/02/27,19:50,0.217,0.195,0.318,0.296,0.278,0.159,0.096,��쐼,4.8,��
2019/02/27,20:00,0.216,0.196,0.317,0.298,0.279,0.159,0.096,��쐼,5.5,��
2019/02/27,20:10,0.218,0.196,0.317,0.297,0.278,0.160,0.096,��쐼,4.6,��
2019/02/27,20:20,0.216,0.195,0.317,0.297,0.278,0.159,0.096,��쐼,4.8,��
2019/02/27,20:30,0.217,0.196,0.319,0.297,0.279,0.159,0.095,��쐼,4.6,��
2019/02/27,20:40,0.216,0.196,0.318,0.298,0.278,0.160,0.096,��쐼,4.7,��
2019/02/27,20:50,0.216,0.196,0.318,0.297,0.280,0.159,0.096,��쐼,4.5,��
2019/02/27,21:00,0.217,0.196,0.317,0.298,0.278,0.160,0.096,��쐼,4.9,��
2019/02/27,21:10,0.215,0.197,0.319,0.297,0.278,0.159,0.096,�쐼,4.9,��
2019/02/27,21:20,0.216,0.195,0.318,0.297,0.278,0.160,0.095,�쐼,4.9,��
2019/02/27,21:30,0.217,0.196,0.318,0.298,0.278,0.160,0.096,��쐼,5.2,��
2019/02/27,21:40,0.217,0.196,0.319,0.298,0.279,0.159,0.096,��쐼,5.1,��
2019/02/27,21:50,0.217,0.196,0.319,0.295,0.278,0.159,0.096,��쐼,5.4,��
2019/02/27,22:00,0.217,0.197,0.318,0.297,0.278,0.160,0.095,��쐼,5.2,��
2019/02/27,22:10,0.217,0.196,0.320,0.297,0.277,0.160,0.096,��쐼,4.8,��
2019/02/27,22:20,0.216,0.198,0.319,0.297,0.279,0.159,0.095,��쐼,4.4,��
2019/02/27,22:30,0.217,0.196,0.320,0.298,0.278,0.159,0.096,��쐼,4.4,��
2019/02/27,22:40,0.219,0.196,0.319,0.297,0.279,0.160,0.096,��쐼,3.7,��
2019/02/27,22:50,0.216,0.196,0.317,0.297,0.278,0.160,0.096,�쐼,3.4,��
2019/02/27,23:00,0.218,0.196,0.320,0.297,0.278,0.160,0.096,�쐼,3.7,��
2019/02/27,23:10,0.218,0.197,0.318,0.298,0.278,0.160,0.095,��쐼,2.5,��
2019/02/27,23:20,0.217,0.197,0.318,0.298,0.279,0.160,0.096,��,1.5,��
2019/02/27,23:30,0.216,0.197,0.319,0.297,0.279,0.160,0.096,��쐼,1.7,��
2019/02/27,23:40,0.216,0.196,0.317,0.298,0.279,0.159,0.096,��쐼,2.5,��
2019/02/27,23:50,0.216,0.197,0.319,0.298,0.278,0.160,0.096,��쐼,2.6,��
